Showing default

SES 14, 43175

Orbit data source: Space-Track

SES 14, 43175 is a payload satellite owned by SES (LU) in GEO that was launched on Thu, 25 Jan 2018 UTC via an ARIANE 5ECA launch vehicle from the French Guiana (FRGUI). Payload-class satellites include a variety of spacecraft equipped with specific instruments for various scientific and technological missions. These include communications satellites like Starlink; space stations such as the ISS; scientific satellites like the Hubble; Earth observation satellites from companies like Planet Labs, Umbra, and HawkEye 360; GPS; miniature CubeSats for education and research; and military/defense satellites.

Loading next visibility...
Identifier
43175, 2018-012B
Orbit
GEO
Country
Flag of LULU / SES
Related business
Manufacturer
Airbus/Toulouse
Mission
Operational Commercial Communications
Bus & Motor
EUROSTAR 3000E, EOR
Mass
4,423 kg wet, ~2,800 kg dry
Launch date (UTC)
2018-01-25 (8 years ago)
Launch vehicle
ARIANE 5ECA
Launch site
French Guiana (FRGUI)
Object type
Payload
Rocket body
Debris
Shape & HBR
Box + 2 Pan, 19.6 m
Radar Cross Section
49.877 m², Large (>1 m²)

Expand to show TLE details & history
Last TLE update: 21 hours ago

TLE from 21 hours ago
0 SES 14
1 43175U 18012B   25261.06503169  .00000000  00000-0  00000-0 0  9998
2 43175   0.0178 130.8067 0001189  55.1081 147.2319  1.00268083  4292
Epoch: 2025-09-18T01:33Z
TLE epoch observation values (Epoch: 2025-09-18T01:33:38.738Z)
Latitude
-0.00813°
Longitude
-47.4875°
Altitude
35,791.364 km
Speed
3.074 km/s
True Right ascension
22h 12m 37s
True Declination
0° 00' 29"
Sunlit
Object was in daylight at epoch
Visualization orbit readout
Latitude
Unknown
Longitude
Unknown
Altitude
Unknown
Speed
Unknown
Apparent Right ascension
Unknown
Apparent Declination
Unknown
Sunlit
N/A
Visualization observer readout
Local Sidereal Time
15:12:35
Azimuth
Unknown
Elevation
Unknown
Doppler factor
Unknown
Orbital elements
Apogee altitude
35,793.717 km
Perigee altitude
35,783.69 km
Semi-major axis
42,166.84 km
Eccentricity
0.00012
Inclination
0.0178°
RAAN
130.8067°
Arg. of periapsis
55.1081°
True anomaly
147.23927°
Mean anomaly
147.2319°
Eccentric anomaly
147.23559°
Mean motion
0.25066 °/min
Orbital period
1,436.2 mins
BSTAR
0
Loading maneuver chart data...
Computing Atmospheric mass density...
Loading historical data...
Loading historical data...
Loading historical data...
Loading historical data...
Loading historical data...
Loading historical data...
Loading historical data...
Other satellites on launch #12 in the year 2018 (2018-01-25 UTC)

Documentation

Showing up to 5 results
|